Welcome to the New NWS' Forecast!
Most changes are behind the scenes, but click here for differences you might notice.

Regional Weather Roundup (RWR)

Issued by Gray - Portland, ME (GYX)

                            
000
ASUS41 KGYX 181505
RWRGYX
WEATHER ROUNDUP FOR MAINE AND NEW HAMPSHIRE
NATIONAL WEATHER SERVICE GRAY ME
1100 AM EDT THU OCT 18 2018

MEZ002-005-006-010-012-015-018-020-021-024-026-027-029-181600-
MAINE
  
CITY           SKY/WX    TMP DP  RH WIND       PRES   REMARKS
PORTLAND       FAIR      41  20  43 W23G36    30.12R                  
SANFORD        FAIR      40  17  39 NW18G29   30.14S                  
BAR HARBOR     FAIR      40  19  43 NW15G25   29.97                   
WISCASSET      FAIR      41  19  41 NW13G23   30.09R                  
ROCKLAND       FAIR      40  20  44 W18G31    30.02R                  
FRYEBURG       FAIR      38  18  44 NW12G28   30.14R                  
LEWISTONAUBURN FAIR      38  21  50 NW18G31   30.11R                  
AUGUSTA        FAIR      38  19  46 NW16G33   30.06R                  
WATERVILLE     FAIR      39  19  44 NW20G26   30.03                   
BANGOR         PTSUNNY   40  19  43 NW22G31   29.99R                  
GREENVILLE       N/A     31  17  56 NW14G35   29.92R                  
MILLINOCKET    CLOUDY    37  18  46 NW20G32   29.94R                  
HOULTON        PTSUNNY   36  21  54 NW15G35   29.83R                  
PRESQUE ISLE   CLOUDY    36  19  50 NW26G40   29.83R                  
FRENCHVILLE    FLURRIES  35  19  52 NW28G37   29.78R                  
CARIBOU        PTSUNNY   35  19  52 NW23G45   29.80R                  
$$

NHZ002-005-008-009-011-012-014-181600-
NEW HAMPSHIRE
  
CITY           SKY/WX    TMP DP  RH WIND       PRES   REMARKS
PORTSMOUTH     MOSUNNY   42  18  38 NW18G25   30.15R                  
ROCHESTER      FAIR      40  20  44 NW17G25   30.14S                  
NASHUA         FAIR      41  15  35 NW21G32   30.20F                  
MANCHESTER     FAIR      40  14  34 NW18G30   30.18S                  
CONCORD        FAIR      40  19  43 NW18G29   30.18F                  
LACONIA        PTSUNNY   36  17  46 W9G22     30.18R                  
PLYMOUTH       PTSUNNY   36  20  52 NW15G22   30.18S                  
BERLIN         FLURRIES  31  22  69 VRB7G21   30.12R                  
WHITEFIELD     CLOUDY    32  20  61 W16       30.17R                  
JAFFREY        FAIR      37  17  44 VRB7G33   30.19F                  
KEENE          FAIR      38  14  37 NW17G25   30.22F                  
LEBANON        CLOUDY    37  17  44 NW14      30.24R                  
MT WASHINGTON  NOT AVBL                                               
$$

VTZ005-007-008-181600-
VERMONT
  
CITY           SKY/WX    TMP DP  RH WIND       PRES   REMARKS
ST JOHNSBURY     N/A     32  20  61 MISG      30.19S                  
MONTPELIER     CLOUDY    32  21  64 NW21G28   30.23S WCI  20          
BURLINGTON     PTSUNNY   39  19  44 NW16G33   30.26F                  
$$

MAZ007-012-024-CTZ003-RIZ002-NYZ038-NYZ072-181600-
SOUTHERN NEW ENGLAND AND NY
  
CITY           SKY/WX    TMP DP  RH WIND       PRES   REMARKS
BOSTON         FAIR      44  17  33 NW20G29   30.21S                  
WORCESTER      FAIR      37  15  40 W20G26    30.20S                  
NANTUCKET      FAIR      44  20  38 NW22G30   30.20R                  
PROVIDENCE     FAIR      44  20  38 NW15      30.23F                  
HARTFORD       FAIR      43  16  33 NW21G30   30.27F                  
ALBANY         FAIR      38  16  40 NW20G25   30.35R                  
NEW YORK CITY  FAIR      47  25  42 NW20G31   30.34S                  
$$

ANZ081-ANZ082-ANZ150-NHZ014-MEZ023>029-181600-
COASTAL MARINE OBSERVATIONS
  
STATION/POSITION TIME  TEMP    WIND        PRES    WAVE
                       AIR SEA DIR/SP/G            HT/PER
                 (UTC) (F)     (DEG/KT/KT) (MB)    (FT/S)
MATINICUS ROCK   1400   38     290/ 31/ 38 1015.5R
ISLE OF SHOALS   1400   38     310/ 24/ 26 1020.6R
JEFFREYS LEDGE   1406      55                N/A     7/ 6
$$

.............KEY..............
   WCI - WIND CHILL
   TC  - TEMPERATURE IN CELSIUS
   VSB - VISIBILITY IN MILES
   HX  - HEAT INDEX
   FAIR- INDICATES FEW OR NO CLOUDS BELOW 12,000 FT, WITH NO 
         SIGNIFICANT WEATHER AND/OR OBSTRUCTIONS TO VISIBILITY.